Weather reports worldwide

Advertisment
Northolt, United Kingdom (3672): temperature & dewpoint: 11.10.2018 05:00:00 - 17.10.2018 05:00:00 (BST)Northolt, United Kingdom (3672): temperature -20cm & temperature -100cm: 11.10.2018 05:00:00 - 17.10.2018 05:00:00 (BST)Northolt, United Kingdom (3672): wind speed & gusts: 11.10.2018 05:00:00 - 17.10.2018 05:00:00 (BST)Northolt, United Kingdom (3672): wind direction: 11.10.2018 05:00:00 - 17.10.2018 05:00:00 (BST)Northolt, United Kingdom (3672): reduced air pressure: 11.10.2018 05:00:00 - 17.10.2018 05:00:00 (BST)Northolt, United Kingdom (3672): visibility: 11.10.2018 05:00:00 - 17.10.2018 05:00:00 (BST)Northolt, United Kingdom (3672): precipitation: 11.10.2018 05:00:00 - 17.10.2018 05:00:00 (BST)
Date & Time tt [°C] td [°C] tt -20cm [°C] tt -100cm [°C] ff [km/h] ff [kn] fx [km/h] fx [kn] dd ppp [hPa] vv [km] rr [mm]
17.10.2018 05:00:00 11,1 10,4 - - 4 2 - - SSE 1017,2 13 -
17.10.2018 04:00:00 11,4 10,4 - - 5 3 - - SW 1017,1 16 0,0
17.10.2018 03:00:00 11,8 10,5 - - 5 3 - - SW 1017,2 9 0,0
17.10.2018 02:00:00 12,5 10,7 - - 11 6 - - WSW 1017,4 10 0,0
17.10.2018 01:00:00 12,8 10,8 - - 11 6 - - SW 1017,3 10 0,0
17.10.2018 00:00:00 13,0 10,5 - - 9 5 - - SW 1017,4 10 0,0
16.10.2018 23:00:00 13,6 10,4 - - 11 6 - - WSW 1017,3 30 0,0
16.10.2018 22:00:00 14,1 10,0 - - 9 5 - - SW 1017,2 30 0,0
16.10.2018 21:00:00 15,4 11,5 - - 21 11 - - WSW 1017,3 10 0,0
16.10.2018 20:00:00 16,0 12,4 - - 15 8 - - WSW 1016,8 25 0,0
16.10.2018 19:00:00 16,7 13,9 - - 13 7 - - SSW 1016,4 18 0,0
16.10.2018 18:00:00 16,9 13,8 - - 13 7 - - SSW 1016,0 20 0,0
16.10.2018 17:00:00 17,4 13,6 - - 13 7 - - SSW 1015,6 22 0,0
16.10.2018 16:00:00 17,7 13,5 - - 21 11 - - SSW 1015,7 10 0,0
16.10.2018 15:00:00 19,9 13,9 - - 22 12 - - SSW 1015,4 10 0,0
16.10.2018 14:00:00 19,5 14,4 - - 16 9 - - SSW 1015,5 10 0,0
16.10.2018 13:00:00 19,3 14,4 - - 16 9 - - SSW 1015,3 10 0,0
16.10.2018 12:00:00 19,1 14,9 - - 16 9 - - S 1015,3 10 0,0
16.10.2018 11:00:00 16,6 14,4 - - 8 4 - - S 1015,7 7 0,0
16.10.2018 10:00:00 16,2 14,2 14,4 15,0 8 4 - - S 1016,1 6 0,0
16.10.2018 09:00:00 14,8 13,7 - - 5 3 - - S 1015,9 5 0,0
16.10.2018 08:00:00 14,4 13,6 - - 2 1 - - S 1015,4 4,0 0,0
16.10.2018 07:00:00 14,4 13,7 - - 4 2 - - S 1015,1 4,0 0,0
16.10.2018 06:00:00 14,3 13,8 - - 8 4 - - SE 1014,8 6 0,0
16.10.2018 05:00:00 14,4 14,1 - - 9 5 - - SE 1014,5 2,9 0,0
16.10.2018 04:00:00 14,2 14,0 - - 5 3 - - E 1014,8 2,6 0,0
16.10.2018 03:00:00 14,2 14,0 - - 8 4 - - E 1014,7 1,5 0,0
16.10.2018 02:00:00 14,0 13,9 - - 5 3 - - E 1015,1 1,3 0,0
16.10.2018 01:00:00 13,7 13,6 - - 5 3 - - E 1015,2 0,5 0,0
16.10.2018 00:00:00 13,5 13,3 - - 5 3 - - NE 1015,2 0,2 0,0
15.10.2018 23:00:00 13,3 13,0 - - 5 3 - - E 1015,0 0,7 0,0
15.10.2018 22:00:00 13,2 12,7 - - 8 4 - - E 1014,6 6 0,0
15.10.2018 21:00:00 13,0 12,3 - - 5 3 - - ENE 1014,4 10 0,0
15.10.2018 20:00:00 13,1 12,6 - - 15 8 - - NNE 1014,3 8 0,0
15.10.2018 19:00:00 13,3 12,7 - - 9 5 - - NE 1013,8 7 0,0
15.10.2018 18:00:00 13,3 12,7 - - 13 7 - - NE 1013,3 7 0,0
15.10.2018 17:00:00 13,2 12,5 - - 11 6 - - ENE 1012,9 5 0,0
15.10.2018 16:00:00 13,4 12,6 - - 13 7 - - NE 1012,3 6 0,2
15.10.2018 15:00:00 13,6 12,5 - - 15 8 - - ENE 1011,9 7 0,0
15.10.2018 14:00:00 13,3 12,7 - - 13 7 - - NE 1011,6 3,5 0,0
15.10.2018 13:00:00 13,1 12,4 - - 13 7 - - NE 1011,4 9 0,0
15.10.2018 12:00:00 12,8 11,9 - - 9 5 - - NNE 1011,3 6 0,0
15.10.2018 11:00:00 12,6 11,8 - - 13 7 - - NNE 1010,6 9 0,0
15.10.2018 10:00:00 12,3 11,6 14,2 15,0 16 9 - - NE 1009,8 7 0,2
15.10.2018 09:00:00 12,0 11,3 - - 16 9 - - NNE 1009,3 9 0,0
15.10.2018 08:00:00 11,6 11,2 - - 13 7 - - NNE 1008,8 7 0,0
15.10.2018 07:00:00 11,5 11,1 - - 8 4 - - N 1008,8 3,0 0,2
15.10.2018 06:00:00 11,5 10,9 - - 11 6 - - ENE 1008,1 6 0,6
15.10.2018 05:00:00 11,3 10,6 - - 16 9 - - NE 1007,6 10 0,2
15.10.2018 04:00:00 11,0 10,3 - - 18 10 - - NE 1007,5 45 2,6
15.10.2018 03:00:00 10,9 10,3 - - 9 5 - - ENE 1009,3 5 1,6
15.10.2018 02:00:00 10,7 10,1 - - 18 10 - - ENE 1008,9 16 6,4
15.10.2018 01:00:00 10,3 9,7 - - 15 8 - - NE 1009,0 5 5,6
15.10.2018 00:00:00 10,1 9,6 - - 13 7 - - NNE 1008,8 2,2 6,6
14.10.2018 23:00:00 10,0 9,3 - - 16 9 - - NE 1008,8 10 6,0
14.10.2018 22:00:00 9,8 9,0 - - 18 10 - - NE 1009,0 1,4 1,4
14.10.2018 21:00:00 9,8 8,9 - - 16 9 - - NNE 1009,0 5 0,0
14.10.2018 20:00:00 10,0 9,0 - - 16 9 - - NNE 1008,9 12 0,0
14.10.2018 19:00:00 10,0 8,9 - - 21 11 - - NNE 1008,6 16 0,0
14.10.2018 18:00:00 10,1 9,1 - - 18 10 - - NE 1008,1 10 0,0
14.10.2018 17:00:00 10,8 9,7 - - 21 11 - - NNE 1007,2 7 0,2
14.10.2018 16:00:00 11,2 10,0 - - 21 11 - - NNE 1006,8 6 0,0
14.10.2018 15:00:00 12,1 10,7 - - 18 10 - - N 1006,3 25 2,2
14.10.2018 14:00:00 12,5 11,1 - - 21 11 - - N 1005,6 8 0,0
14.10.2018 13:00:00 12,9 11,7 - - 15 8 - - N 1005,0 12 0,4
14.10.2018 12:00:00 12,6 12,0 - - 11 6 - - NNW 1006,1 8 3,6
14.10.2018 11:00:00 12,9 11,9 - - 13 7 - - N 1005,3 10 0,0
14.10.2018 10:00:00 12,8 11,9 15,5 14,9 13 7 - - NNE 1005,2 10 2,2
14.10.2018 09:00:00 12,6 11,6 - - 13 7 - - NNW 1005,7 20 3,0
14.10.2018 08:00:00 13,6 12,7 - - 13 7 - - NE 1004,7 10 1,2
14.10.2018 07:00:00 13,9 12,3 - - 5 3 - - NNE 1005,4 5 1,4
14.10.2018 06:00:00 15,0 11,7 - - 9 5 - - NNW 1005,7 10 0,0
14.10.2018 05:00:00 15,5 12,1 - - 9 5 - - W 1006,5 35 0,0
14.10.2018 04:00:00 16,1 13,3 - - 18 10 - - W 1006,6 10 0,0
14.10.2018 03:00:00 16,7 14,0 - - 11 6 - - SW 1006,3 10 0,0
14.10.2018 02:00:00 17,1 14,2 - - 22 12 - - W 1007,1 35 0,0
14.10.2018 01:00:00 18,3 15,3 - - 13 7 - - SSW 1006,3 10 0,0
14.10.2018 00:00:00 19,0 15,2 - - 18 10 - - SSW 1006,7 10 0,0
13.10.2018 23:00:00 19,6 15,1 - - 21 11 - - SW 1006,8 10 0,0
13.10.2018 22:00:00 19,9 15,3 - - 22 12 - - SSW 1007,5 10 0,0
13.10.2018 21:00:00 19,9 15,4 - - 21 11 - - SSW 1007,6 30 0,0
13.10.2018 20:00:00 19,9 15,3 - - 18 10 - - S 1007,7 30 0,0
13.10.2018 19:00:00 20,5 15,5 - - 22 12 - - S 1007,3 10 0,0
13.10.2018 18:00:00 21,2 15,8 - - 22 12 - - S 1007,1 10 0,0
13.10.2018 17:00:00 21,9 15,8 - - 24 13 48 26 S 1007,1 10 0,0
13.10.2018 16:00:00 22,7 15,8 - - 28 15 50 27 SSW 1007,5 10 0,0
13.10.2018 15:00:00 23,8 16,5 - - 28 15 48 26 S 1007,5 10 0,0
13.10.2018 14:00:00 24,1 16,4 - - 31 17 55 30 SSW 1008,2 10 0,0
13.10.2018 13:00:00 22,3 14,7 - - 29 16 52 28 SSW 1009,1 10 0,0
13.10.2018 12:00:00 20,9 13,5 - - 22 12 - - S 1010,4 40 0,0
13.10.2018 11:00:00 20,6 13,8 - - 22 12 - - S 1010,7 35 0,0
13.10.2018 10:00:00 18,6 14,2 14,9 14,9 21 11 - - SSW 1011,5 10 0,2
13.10.2018 09:00:00 19,6 13,2 - - 15 8 - - S 1011,2 30 0,0
13.10.2018 08:00:00 18,9 13,3 - - 21 11 - - S 1010,7 10 0,0
13.10.2018 07:00:00 18,8 13,3 - - 16 9 - - S 1010,5 10 0,0
13.10.2018 06:00:00 19,8 13,6 - - 22 12 - - S 1010,6 10 0,0
13.10.2018 05:00:00 19,6 13,9 - - 21 11 - - S 1010,8 40 0,0
13.10.2018 04:00:00 19,7 13,9 - - 24 13 54 29 SSW 1011,1 10 0,0
13.10.2018 03:00:00 19,8 13,9 - - 24 13 - - S 1011,5 10 0,0
13.10.2018 02:00:00 20,0 14,1 - - 28 15 - - SSW 1011,7 35 0,0
13.10.2018 01:00:00 20,1 13,5 - - 26 14 52 28 SSW 1011,8 10 0,0
13.10.2018 00:00:00 20,1 13,6 - - 28 15 50 27 SSW 1011,5 35 0,0
12.10.2018 23:00:00 20,8 12,7 - - 31 17 61 33 SSW 1011,3 40 0,0
12.10.2018 22:00:00 21,0 12,6 - - 37 20 68 37 SSW 1011,2 40 0,0
12.10.2018 21:00:00 21,2 12,3 - - 42 23 68 37 SSW 1010,8 10 0,0
12.10.2018 20:00:00 21,0 12,5 - - 39 21 74 40 SW 1010,4 10 0,0
12.10.2018 19:00:00 20,3 13,2 - - 35 19 61 33 SSW 1010,3 10 0,0
12.10.2018 18:00:00 20,1 13,3 - - 37 20 59 32 SSW 1009,7 10 0,0
12.10.2018 17:00:00 20,1 13,2 - - 37 20 59 32 SSW 1009,5 10 0,0
12.10.2018 16:00:00 20,2 12,6 - - 29 16 59 32 SSW 1009,7 10 0,0
12.10.2018 15:00:00 20,5 10,8 - - 42 23 61 33 SSW 1009,8 10 0,0
12.10.2018 14:00:00 20,1 10,6 - - 31 17 61 33 SSW 1009,8 10 0,0
12.10.2018 13:00:00 19,8 11,3 - - 34 18 61 33 SSW 1009,8 10 0,0
12.10.2018 12:00:00 19,7 11,5 - - 34 18 57 31 SSW 1009,9 10 0,0
12.10.2018 11:00:00 18,2 12,5 - - 28 15 52 28 SSW 1010,0 10 0,0
12.10.2018 10:00:00 17,1 12,1 14,4 14,7 26 14 48 26 SSW 1009,4 25 0,0
12.10.2018 09:00:00 16,6 12,2 - - 22 12 - - S 1009,3 10 0,0
12.10.2018 08:00:00 15,7 11,9 - - 22 12 - - S 1009,0 10 0,0
12.10.2018 07:00:00 15,2 12,1 - - 22 12 - - S 1008,3 10 0,0
12.10.2018 06:00:00 14,7 12,2 - - 21 11 - - S 1008,5 10 0,0
12.10.2018 05:00:00 14,3 12,1 - - 18 10 - - S 1008,5 25 0,0
12.10.2018 04:00:00 13,5 11,5 - - 13 7 - - S 1008,4 26 0,0
12.10.2018 03:00:00 13,7 11,7 - - 13 7 - - S 1008,4 10 0,0
12.10.2018 02:00:00 13,7 12,2 - - 13 7 - - S 1008,3 10 0,0
12.10.2018 01:00:00 13,7 12,5 - - 15 8 - - S 1007,6 24 0,0
12.10.2018 00:00:00 13,5 12,6 - - 9 5 - - S 1007,8 10 0,0
11.10.2018 23:00:00 13,8 12,6 - - 11 6 - - S 1007,1 10 0,0
11.10.2018 22:00:00 14,3 12,6 - - 13 7 - - SSW 1007,0 10 0,0
11.10.2018 21:00:00 14,7 13,1 - - 13 7 - - S 1006,4 10 0,0
11.10.2018 20:00:00 14,9 13,4 - - 15 8 - - SW 1005,7 10 2,2
11.10.2018 19:00:00 16,0 14,9 - - 16 9 - - SSW 1005,4 10 1,8
11.10.2018 18:00:00 17,7 13,9 - - 26 14 - - S 1005,0 10 0,0
11.10.2018 17:00:00 18,6 13,7 - - 22 12 - - S 1004,3 10 0,0
11.10.2018 16:00:00 19,0 13,9 - - 22 12 - - S 1003,9 10 0,0
11.10.2018 15:00:00 18,8 13,9 - - 26 14 - - SSW 1003,8 10 0,0
11.10.2018 14:00:00 19,8 13,6 - - 28 15 46 25 S 1003,1 10 0,0
11.10.2018 13:00:00 20,3 13,5 - - 24 13 - - S 1003,2 10 0,0
11.10.2018 12:00:00 20,3 13,9 - - 24 13 - - S 1003,7 10 0,0
11.10.2018 11:00:00 19,0 13,8 - - 22 12 - - S 1003,8 10 0,0
11.10.2018 10:00:00 17,6 13,8 14,0 14,9 21 11 - - S 1003,9 10 0,0
11.10.2018 09:00:00 16,4 13,3 - - 16 9 - - S 1004,2 10 0,0
11.10.2018 08:00:00 15,6 12,9 - - 13 7 - - SSE 1003,9 40 0,0
11.10.2018 07:00:00 15,9 12,6 - - 18 10 - - SSE 1003,4 10 0,0
11.10.2018 06:00:00 16,0 13,0 - - 15 8 - - SSE 1003,0 10 0,0
11.10.2018 05:00:00 16,4 13,5 - - 13 7 - - S 1003,1 10 0,0

tt = temperature
td = dewpoint
tt -20cm = temperature -20cm
tt -100cm = temperature -100cm
ff = wind speed
fx = gusts
dd = wind direction
ppp = reduced air pressure
vv = visibility
rr = precipitation

Next stations